Flag for Maldives

Past Weather in Male, Maldives — Yesterday and Last 2 Weeks

Now
86 °F

Broken clouds.


Feels Like: 99 °F
Forecast: 88 / 82 °F
Wind: 8 mph from Southwest

Location: Male Airport

Current Time: Jul 16, 2020 at 9:41:56 am

Latest Report: Jul 16, 2020 at 8:00 am


Visibility: N/A

Pressure: 29.77 "Hg

Humidity: 79%

Dew Point: 79 °F

Location of MaleLocation

Past Weather in Male — Graph

°F

Male Temperature Yesterday

Maximum temperature yesterday: 88 °F (at 9:00 am)
Minimum temperature yesterday: 84 °F (at 12:00 am)
Average temperature yesterday: 85 °F

High & Low Weather Summary for the Past Weeks

 TemperatureHumidityPressure
High91 °F (Jul 4, 12:00 pm)100% (Jul 13, 8:00 am)29.83 "Hg (Jul 13, 8:00 am)
Low77 °F (Jul 5, 3:00 pm)59% (Jul 3, 2:00 pm)29.68 "Hg (Jul 14, 3:00 pm)
Average85 °F78%29.77 "Hg
* Reported Jul 1 8:00 am — Jul 16 8:00 am, Male. Weather by CustomWeather, © 2020

Note: Actual official high and low records may vary slightly from our data, if they occured in-between our weather recording intervals... More about our weather records

Male Weather History for the Previous 24 Hours

Scroll right to see more
 ConditionsComfort  
Time TempWeatherWind HumidityBarometerVisibility
8:00 am
Thu, Jul 16
86 °FBroken clouds.8 mph79%29.77 "HgN/A
7:00 am84 °FBroken clouds.10 mph84%29.74 "HgN/A
6:00 am84 °FPassing clouds.10 mph79%29.71 "HgN/A
5:00 am84 °FPassing clouds.10 mph89%29.71 "HgN/A
4:00 am84 °FSprinkles. Partly cloudy.8 mph84%29.71 "HgN/A
3:00 am84 °FPassing clouds.6 mph84%29.71 "HgN/A
2:00 am84 °FPassing clouds.6 mph84%29.74 "HgN/A
1:00 am84 °FPassing clouds.7 mph84%29.77 "HgN/A
12:00 am84 °FPassing clouds.8 mph84%29.77 "HgN/A
11:00 pm
Wed, Jul 15
84 °FPassing clouds.7 mph84%29.80 "HgN/A
10:00 pm84 °FPassing clouds.8 mph84%29.80 "HgN/A
9:00 pm84 °FPassing clouds.10 mph84%29.80 "HgN/A
8:00 pm84 °FPassing clouds.10 mph84%29.77 "HgN/A
7:00 pm84 °FPassing clouds.9 mph84%29.74 "HgN/A
6:00 pm84 °FPartly sunny.9 mph84%29.74 "HgN/A
5:00 pm86 °FPartly sunny.10 mph79%29.71 "HgN/A
4:00 pm86 °FPartly sunny.8 mph79%29.71 "HgN/A
3:00 pm86 °FPartly sunny.9 mph75%29.74 "HgN/A
2:00 pm86 °FPartly sunny.10 mph75%29.74 "HgN/A
1:00 pm88 °FPartly sunny.9 mph75%29.77 "HgN/A
12:00 pm88 °FPartly sunny.9 mph75%29.77 "HgN/A
11:00 am86 °FPartly sunny.8 mph79%29.80 "HgN/A
10:00 am88 °FPartly sunny.8 mph75%29.80 "HgN/A
9:00 am88 °FPartly sunny.8 mph75%29.80 "HgN/A
Weather by CustomWeather, © 2020

See weather overview